Location: London
(42.9830°N, 81.2500°W)
Time: 10:29:07
(UTC-04:00)

Amateur Radio Satellites - All Passes

Search period start: 02 October 2014 09:59
Search period end: 03 October 2014 09:59
Location: London, 42.9830°N, 81.2500°W

Satellite Date Start Highest point End Downlink Frequencies (MHz)
Time Altitude Azimuth
UKube-1 02 Oct 10:07:44 10:10:48 18° 93° (E) 10:13:51 145.840 MHz, 145.915 MHz
Sapphire 02 Oct 10:12:34 10:17:58 83° 119° (ESE) 10:23:26 437.095 MHz 1200 baud AX-25 AFSK
HO-68 02 Oct 10:33:55 10:41:08 75° 105° (ESE) 10:48:19 435.675 MHz FM
PCSat 02 Oct 10:38:10 10:43:30 59° 304° (NW) 10:48:53 145.825 MHz
ZACube-1 02 Oct 10:49:59 10:53:14 19° 92° (E) 10:56:24 437.345 MHz
Oscar 11 02 Oct 11:12:07 11:16:27 76° 102° (ESE) 11:20:45 145.825 FM, Beacon 2401.500 USB
RS-15 02 Oct 11:37:03 11:48:13 78° 54° (NE) 11:59:49 29.354 - 29.394 USB, Beacon 29.352 USB
FUNcube-1 02 Oct 11:39:49 11:44:21 63° 101° (E) 11:48:45 145.950 - 145.970 MHz USB
UKube-1 02 Oct 11:43:03 11:47:11 42° 290° (WNW) 11:51:18 145.840 MHz, 145.915 MHz
Sapphire 02 Oct 11:58:16 12:02:06 19° 319° (NW) 12:05:56 437.095 MHz 1200 baud AX-25 AFSK
HO-68 02 Oct 12:22:42 12:28:09 24° 304° (WNW) 12:33:37 435.675 MHz FM
ZACube-1 02 Oct 12:25:31 12:29:51 43° 289° (WNW) 12:34:03 437.345 MHz
PCSat 02 Oct 12:25:39 12:28:07 13° 326° (NW) 12:30:36 145.825 MHz
JAS-1B 02 Oct 12:47:30 12:51:41 17° 59° (ENE) 12:55:33 435.800 - 435.900 CW/SSB
Oscar 11 02 Oct 12:50:33 12:52:01 12° 299° (WNW) 12:53:28 145.825 FM, Beacon 2401.500 USB
Oscar 19 02 Oct 13:05:00 13:09:11 25° 64° (ENE) 13:13:21 437.125 CW, 437.150 USB
FUNcube-1 02 Oct 13:17:42 13:20:11 15° 298° (WNW) 13:22:39 145.950 - 145.970 MHz USB
ITAMSAT 1 02 Oct 13:21:18 13:24:21 16° 59° (ENE) 13:27:26 435.822 SSB
Uribyol 2 02 Oct 13:21:33 13:24:50 17° 60° (ENE) 13:28:07 436.500 FM
AO-Echo 02 Oct 13:44:36 13:48:29 26° 66° (ENE) 13:52:24 ?
Oscar 16 02 Oct 13:45:12 13:50:17 58° 72° (ENE) 13:55:23 437.025 USB, Beacon 2401.1428
RS-15 02 Oct 13:50:25 13:59:33 31° 256° (WSW) 14:09:02 29.354 - 29.394 USB, Beacon 29.352 USB
AO-27 02 Oct 13:58:15 14:02:50 33° 67° (ENE) 14:07:28 436.795 MHz FM
Saudisat 1A 02 Oct 14:09:35 14:13:44 43° 118° (ESE) 14:17:55 436.775 MHz
Gurwin Techsat 1B 02 Oct 14:31:04 14:35:45 33° 67° (ENE) 14:40:27 435.225 FM
JAS-1B 02 Oct 14:34:11 14:41:45 88° 255° (WSW) 14:48:07 435.800 - 435.900 CW/SSB
Oscar 19 02 Oct 14:43:20 14:48:16 44° 261° (W) 14:53:13 437.125 CW, 437.150 USB
AO-7 02 Oct 14:51:41 14:57:34 22° 50° (NE) 15:03:27 29.400 - 29.500 MHz
ITAMSAT 1 02 Oct 14:58:04 15:03:14 74° 257° (WSW) 15:08:27 435.822 SSB
TMSAT-1 02 Oct 14:58:25 15:03:22 42° 69° (ENE) 15:08:21 436.925 FM
Uribyol 2 02 Oct 14:58:34 15:03:44 69° 258° (WSW) 15:08:57 436.500 FM
MaSat-1 02 Oct 15:04:03 15:07:18 40° 58° (ENE) 15:10:06 437.345 MHz
AO-Echo 02 Oct 15:22:53 15:27:07 34° 263° (W) 15:31:26 ?
Oscar 16 02 Oct 15:26:30 15:30:00 18° 269° (W) 15:33:31 437.025 USB, Beacon 2401.1428
AO-27 02 Oct 15:37:44 15:42:19 32° 264° (W) 15:46:58 436.795 MHz FM
Saudisat 1A 02 Oct 15:49:49 15:53:29 25° 316° (NW) 15:57:10 436.775 MHz
Gurwin Techsat 1B 02 Oct 16:10:54 16:15:39 33° 264° (W) 16:20:27 435.225 FM
KITSAT 1 02 Oct 16:24:47 16:31:18 28° 105° (ESE) 16:37:48 435.175 FM
JAS-1B 02 Oct 16:29:15 16:32:56 14° 269° (W) 16:36:23 435.800 - 435.900 CW/SSB
TMSAT-1 02 Oct 16:39:05 16:43:26 26° 266° (W) 16:47:48 436.925 FM
AO-7 02 Oct 16:40:58 16:49:16 87° 71° (ENE) 16:57:36 29.400 - 29.500 MHz
Uosat F 02 Oct 16:44:37 16:49:34 70° 73° (ENE) 16:54:34 435.120 FM
Oscar 10/S400 02 Oct 17:03:17 17:20:41 44° 156° (SSE) 17:57:43 145.825 - 145.975 CW/USB, Beacon 145.810 USB
JAS-2 02 Oct 17:13:41 17:17:49 24° 62° (ENE) 17:22:10 435.800 - 435.900 CW/SSB, 435.910 FM
Sapphire 02 Oct 17:17:29 17:20:52 16° 38° (NE) 17:24:15 437.095 MHz 1200 baud AX-25 AFSK
PCSat 02 Oct 17:42:22 17:46:47 24° 45° (NE) 17:51:10 145.825 MHz
Hamsat 02 Oct 18:08:27 18:12:40 54° 74° (ENE) 18:16:52 145.90 MHz
KITSAT 1 02 Oct 18:17:58 18:26:01 70° 305° (NW) 18:34:07 435.175 FM
Uosat F 02 Oct 18:26:17 18:28:52 14° 270° (W) 18:31:28 435.120 FM
OPAL 02 Oct 18:35:59 18:41:07 84° 106° (ESE) 18:46:08 ?
AO-7 02 Oct 18:37:21 18:43:01 20° 269° (W) 18:48:43 29.400 - 29.500 MHz
JAS-2 02 Oct 18:57:44 19:02:39 44° 262° (W) 19:07:52 435.800 - 435.900 CW/SSB, 435.910 FM
Sapphire 02 Oct 18:59:44 19:05:12 80° 59° (ENE) 19:10:37 437.095 MHz 1200 baud AX-25 AFSK
SO-67 02 Oct 19:12:28 19:15:35 32° 72° (ENE) 19:18:43 435.3500 MHz FM
HO-68 02 Oct 19:20:46 19:23:44 13° 48° (NE) 19:26:42 435.675 MHz FM
PCSat 02 Oct 19:25:15 19:30:36 60° 244° (WSW) 19:35:55 145.825 MHz
SO-50 02 Oct 19:26:14 19:30:34 50° 118° (ESE) 19:35:01 436.795 FM
STRAND 1 02 Oct 19:40:24 19:45:03 33° 97° (E) 19:49:39 ?
Hamsat 02 Oct 19:46:40 19:48:56 14° 270° (W) 19:51:13 145.90 MHz
AO-40 02 Oct 20:10:30 01:52:59 41° 183° (S) 08:17:10 Beacon 2401.320
OPAL 02 Oct 20:16:40 20:19:17 14° 304° (NW) 20:21:53 ?
KITSAT 1 02 Oct 20:16:57 20:23:00 22° 329° (NNW) 20:29:05 435.175 FM
Sapphire 02 Oct 20:45:01 20:47:54 15° 257° (WSW) 20:50:47 437.095 MHz 1200 baud AX-25 AFSK
SO-67 02 Oct 20:46:47 20:48:43 14° 268° (W) 20:50:39 435.3500 MHz FM
HO-68 02 Oct 21:03:02 21:10:01 61° 68° (ENE) 21:17:03 435.675 MHz FM
UKube-1 02 Oct 21:04:25 21:07:29 19° 64° (ENE) 21:10:34 145.840 MHz, 145.915 MHz
SO-50 02 Oct 21:07:43 21:11:24 24° 318° (NW) 21:15:09 436.795 FM
STRAND 1 02 Oct 21:19:38 21:24:10 32° 294° (WNW) 21:28:42 ?
UOSAT-12 02 Oct 21:24:15 21:28:50 67° 121° (ESE) 21:33:31 437.025 FM, 437.400 FM
ISS 02 Oct 21:28:27 21:30:51 19° 134° (SE) 21:33:15 145.800 FM
ZACube-1 02 Oct 21:47:33 21:50:45 19° 64° (ENE) 21:53:58 437.345 MHz
Oscar 11 02 Oct 22:07:43 22:12:02 66° 74° (ENE) 22:16:23 145.825 FM, Beacon 2401.500 USB
KITSAT 1 02 Oct 22:18:39 22:22:08 13° 360° (N) 22:25:37 435.175 FM
Saudisat 1A 02 Oct 22:35:16 22:39:33 46° 51° (NE) 22:43:48 436.775 MHz
FUNcube-1 02 Oct 22:36:38 22:41:05 56° 73° (ENE) 22:45:37 145.950 - 145.970 MHz USB
UKube-1 02 Oct 22:39:16 22:43:23 42° 261° (W) 22:47:32 145.840 MHz, 145.915 MHz
HO-68 02 Oct 22:52:19 22:58:09 27° 266° (W) 23:04:01 435.675 MHz FM
ISS 02 Oct 23:03:58 23:07:16 59° 330° (NNW) 23:10:34 145.800 FM
UOSAT-12 02 Oct 23:05:57 23:09:27 20° 320° (NW) 23:13:00 437.025 FM, 437.400 FM
ZACube-1 02 Oct 23:22:21 23:26:46 49° 261° (W) 23:31:16 437.345 MHz
Oscar 11 02 Oct 23:47:02 23:48:40 12° 271° (W) 23:50:17 145.825 FM, Beacon 2401.500 USB
FUNcube-1 03 Oct 00:15:09 00:17:49 15° 270° (W) 00:20:32 145.950 - 145.970 MHz USB
KITSAT 1 03 Oct 00:15:16 00:21:17 22° 30° (NNE) 00:27:17 435.175 FM
Saudisat 1A 03 Oct 00:15:32 00:18:49 21° 248° (WSW) 00:22:04 436.775 MHz
ISS 03 Oct 00:41:52 00:44:27 20° 350° (N) 00:47:02 145.800 FM
Oscar 16 03 Oct 01:57:01 02:00:38 19° 92° (E) 02:04:12 437.025 USB, Beacon 2401.1428
RS-15 03 Oct 02:02:06 02:12:15 44° 110° (ESE) 02:22:16 29.354 - 29.394 USB, Beacon 29.352 USB
KITSAT 1 03 Oct 02:10:14 02:18:19 69° 55° (NE) 02:26:20 435.175 FM
AO-27 03 Oct 02:13:21 02:14:01 10° 87° (E) 02:14:41 436.795 MHz FM
SO-50 03 Oct 02:17:45 02:19:59 13° 32° (NNE) 02:22:15 436.795 FM
JAS-1B 03 Oct 02:18:24 02:22:28 19° 93° (E) 02:26:45 435.800 - 435.900 CW/SSB
ISS 03 Oct 02:19:25 02:21:59 20° 10° (N) 02:24:34 145.800 FM
Gurwin Techsat 1B 03 Oct 02:48:26 02:50:07 11° 87° (E) 02:51:47 435.225 FM
Oscar 19 03 Oct 02:53:44 02:58:51 62° 101° (ESE) 03:03:54 437.125 CW, 437.150 USB
ITAMSAT 1 03 Oct 03:10:14 03:15:05 37° 97° (E) 03:19:54 435.822 SSB
Uribyol 2 03 Oct 03:10:33 03:15:28 40° 98° (E) 03:20:21 436.500 FM
TMSAT-1 03 Oct 03:14:33 03:17:38 15° 90° (E) 03:20:42 436.925 FM
AO-Echo 03 Oct 03:28:00 03:33:02 68° 102° (ESE) 03:38:12 ?
Oscar 16 03 Oct 03:35:17 03:40:19 54° 289° (WNW) 03:45:18 437.025 USB, Beacon 2401.1428
AO-27 03 Oct 03:49:01 03:54:17 85° 104° (ESE) 03:59:31 436.795 MHz FM
ISS 03 Oct 03:55:54 03:59:11 58° 29° (NNE) 04:02:28 145.800 FM
SO-50 03 Oct 03:56:45 04:01:32 60° 53° (NE) 04:06:21 436.795 FM
KITSAT 1 03 Oct 04:06:30 04:13:04 28° 254° (WSW) 04:19:37 435.175 FM
JAS-1B 03 Oct 04:07:58 04:13:33 58° 289° (WNW) 04:19:36 435.800 - 435.900 CW/SSB
RS-15 03 Oct 04:13:29 04:24:16 58° 313° (NW) 04:35:04 29.354 - 29.394 USB, Beacon 29.352 USB
UOSAT-12 03 Oct 04:14:12 04:16:51 15° 34° (NE) 04:19:29 437.025 FM, 437.400 FM
OPAL 03 Oct 04:14:23 04:18:26 23° 61° (ENE) 04:22:29 ?
Gurwin Techsat 1B 03 Oct 04:25:26 04:30:47 89° 285° (WNW) 04:36:06 435.225 FM
Oscar 19 03 Oct 04:34:16 04:37:41 18° 299° (WNW) 04:41:06 437.125 CW, 437.150 USB
AO-7 03 Oct 04:42:17 04:49:05 27° 94° (E) 04:55:50 29.400 - 29.500 MHz
MaSat-1 03 Oct 04:48:18 04:51:29 18° 105° (ESE) 04:54:35 437.345 MHz
ITAMSAT 1 03 Oct 04:49:58 04:54:26 29° 295° (WNW) 04:58:54 435.822 SSB
Uribyol 2 03 Oct 04:50:22 04:54:45 28° 295° (WNW) 04:59:07 436.500 FM
Uosat F 03 Oct 04:52:18 04:55:58 20° 93° (E) 04:59:37 435.120 FM
TMSAT-1 03 Oct 04:52:46 04:58:04 70° 287° (WNW) 05:03:20 436.925 FM
AO-Echo 03 Oct 05:08:11 05:11:17 17° 298° (WNW) 05:14:27 ?
AO-27 03 Oct 05:30:25 05:33:04 14° 302° (WNW) 05:35:43 436.795 MHz FM
ISS 03 Oct 05:33:11 05:35:36 19° 226° (SW) 05:38:01 145.800 FM
SO-50 03 Oct 05:38:23 05:41:40 18° 250° (WSW) 05:44:58 436.795 FM
OPAL 03 Oct 05:51:55 05:56:58 50° 258° (WSW) 06:02:03 ?
UOSAT-12 03 Oct 05:53:06 05:57:50 74° 55° (NE) 06:02:30 437.025 FM, 437.400 FM
JAS-2 03 Oct 06:04:01 06:09:39 26° 93° (E) 06:15:41 435.800 - 435.900 CW/SSB, 435.910 FM
Gurwin Techsat 1B 03 Oct 06:07:30 06:09:58 13° 302° (WNW) 06:12:27 435.225 FM
MaSat-1 03 Oct 06:22:49 06:27:33 57° 299° (WNW) 06:32:01 437.345 MHz
Uosat F 03 Oct 06:30:09 06:35:02 50° 289° (WNW) 06:39:53 435.120 FM
RS-15 03 Oct 06:30:58 06:39:38 26° 344° (NNW) 06:48:25 29.354 - 29.394 USB, Beacon 29.352 USB
AO-7 03 Oct 06:34:14 06:42:28 69° 293° (WNW) 06:50:40 29.400 - 29.500 MHz
TMSAT-1 03 Oct 06:36:20 06:37:00 10° 305° (NW) 06:37:40 436.925 FM
STRAND 1 03 Oct 06:57:09 07:02:04 52° 71° (ENE) 07:07:03 ?
Hamsat 03 Oct 07:29:02 07:33:15 82° 284° (WNW) 07:37:24 145.90 MHz
UOSAT-12 03 Oct 07:35:00 07:37:22 14° 252° (WSW) 07:39:43 437.025 FM, 437.400 FM
JAS-2 03 Oct 07:48:19 07:54:58 63° 288° (WNW) 08:02:20 435.800 - 435.900 CW/SSB, 435.910 FM
SO-67 03 Oct 08:07:44 08:10:55 34° 97° (E) 08:14:05 435.3500 MHz FM
PCSat 03 Oct 08:27:14 08:30:11 15° 104° (ESE) 08:33:09 145.825 MHz
AO-7 03 Oct 08:28:55 08:33:47 17° 314° (NW) 08:38:40 29.400 - 29.500 MHz
STRAND 1 03 Oct 08:37:56 08:41:34 20° 268° (W) 08:45:14 ?
RS-15 03 Oct 08:47:58 08:56:56 27° 20° (NNE) 09:06:05 29.354 - 29.394 USB, Beacon 29.352 USB
JAS-2 03 Oct 09:36:14 09:38:57 13° 306° (NW) 09:41:46 435.800 - 435.900 CW/SSB, 435.910 FM
SO-67 03 Oct 09:41:42 09:43:38 15° 294° (WNW) 09:45:35 435.3500 MHz FM
Sapphire 03 Oct 09:42:15 09:47:34 62° 116° (ESE) 09:52:55 437.095 MHz 1200 baud AX-25 AFSK
